• Em Portugal
  • Lista de países
  • Para 7 dias
  • Temperatura da água
  • Mapas de satélite
  • Mapa do tempo
  • Widgets de tempo
  • user-avatar
    Iniciar Sessão

    Previsão horária em Mierkinie

    Hoje, 24 Junho, Domingo

    Tempo Temperatura Precipitação Vento Pressão Humidade
    00:00 +7°C° 0 mm 2 m/s 735 mmHg 94%
    01:00 +7°C° 0 mm 2 m/s 735 mmHg 94%
    02:00 +6°C° 0 mm 2 m/s 735 mmHg 95%
    03:00 +6°C° 0 mm 2 m/s 735 mmHg 95%
    04:00 +6°C° 0 mm 2 m/s 735 mmHg 95%
    05:00 +6°C° 0 mm 2 m/s 735 mmHg 95%
    06:00 +8°C° 0 mm 2 m/s 735 mmHg 89%
    07:00 +9°C° 0 mm 3 m/s 735 mmHg 84%
    08:00 +11°C° 0 mm 3 m/s 735 mmHg 79%
    09:00 +12°C° 0,2 mm 3 m/s 735 mmHg 77%
    10:00 +13°C° 0,2 mm 3 m/s 735 mmHg 74%
    11:00 +13°C° 0,2 mm 3 m/s 735 mmHg 72%
    12:00 +13°C° 0,5 mm 4 m/s 735 mmHg 75%
    13:00 +13°C° 0,5 mm 4 m/s 735 mmHg 78%
    14:00 +13°C° 0,5 mm 4 m/s 735 mmHg 81%
    15:00 +13°C° 0,4 mm 4 m/s 735 mmHg 81%
    16:00 +13°C° 0,4 mm 4 m/s 735 mmHg 82%
    17:00 +13°C° 0,4 mm 4 m/s 735 mmHg 82%
    18:00 +12°C° 0,3 mm 3 m/s 735 mmHg 85%
    19:00 +12°C° 0,3 mm 3 m/s 735 mmHg 87%
    20:00 +12°C° 0,3 mm 2 m/s 735 mmHg 90%
    21:00 +10°C° 0,1 mm 2 m/s 736 mmHg 91%
    22:00 +9°C° 0,1 mm 2 m/s 736 mmHg 93%
    23:00 +9°C° 0,1 mm 3 m/s 736 mmHg 94%

    Amanhã, 25 Junho, Segunda-feira

    Tempo Temperatura Precipitação Vento Pressão Humidade
    00:00 +9°C° 0,1 mm 3 m/s 736 mmHg 95%
    01:00 +8°C° 0,1 mm 3 m/s 736 mmHg 96%
    02:00 +8°C° 0,1 mm 3 m/s 736 mmHg 97%
    03:00 +8°C° 0,3 mm 3 m/s 736 mmHg 97%
    04:00 +8°C° 0,3 mm 3 m/s 736 mmHg 97%
    05:00 +9°C° 0,3 mm 3 m/s 736 mmHg 97%
    06:00 +9°C° 0,6 mm 3 m/s 736 mmHg 95%
    07:00 +10°C° 0,6 mm 3 m/s 736 mmHg 94%
    08:00 +10°C° 0,6 mm 4 m/s 736 mmHg 93%
    09:00 +11°C° 0,8 mm 4 m/s 736 mmHg 92%
    10:00 +10°C° 0,8 mm 5 m/s 736 mmHg 91%
    11:00 +12°C° 0,8 mm 5 m/s 737 mmHg 91%
    12:00 +12°C° 0,4 mm 5 m/s 737 mmHg 90%
    13:00 +12°C° 0,4 mm 5 m/s 737 mmHg 89%
    14:00 +13°C° 0,4 mm 5 m/s 737 mmHg 89%
    15:00 +13°C° 0,3 mm 5 m/s 737 mmHg 87%
    16:00 +13°C° 0,3 mm 5 m/s 737 mmHg 85%
    17:00 +14°C° 0,3 mm 4 m/s 737 mmHg 83%
    18:00 +13°C° 0,2 mm 4 m/s 737 mmHg 85%
    19:00 +12°C° 0,2 mm 4 m/s 737 mmHg 87%
    20:00 +12°C° 0,2 mm 3 m/s 737 mmHg 89%
    21:00 +12°C° 0,2 mm 3 m/s 737 mmHg 89%
    22:00 +11°C° 0,2 mm 4 m/s 737 mmHg 90%
    23:00 +11°C° 0,2 mm 4 m/s 737 mmHg 90%

    Depois de amanhã, 26 Junho, Terça-feira

    Tempo Temperatura Precipitação Vento Pressão Humidade
    00:00 +11°C° 0,3 mm 4 m/s 737 mmHg 92%
    01:00 +11°C° 0,3 mm 4 m/s 737 mmHg 93%
    02:00 +11°C° 0,3 mm 3 m/s 738 mmHg 95%
    03:00 +10°C° 0,2 mm 3 m/s 738 mmHg 96%
    04:00 +10°C° 0,2 mm 3 m/s 738 mmHg 96%
    05:00 +10°C° 0,2 mm 3 m/s 738 mmHg 97%
    06:00 +10°C° 0,1 mm 3 m/s 738 mmHg 96%
    07:00 +11°C° 0,1 mm 3 m/s 738 mmHg 94%
    08:00 +11°C° 0,1 mm 3 m/s 739 mmHg 92%
    09:00 +12°C° 0,2 mm 3 m/s 739 mmHg 89%
    10:00 +13°C° 0,2 mm 3 m/s 739 mmHg 86%
    11:00 +14°C° 0,2 mm 3 m/s 739 mmHg 82%
    12:00 +16°C° 0,4 mm 3 m/s 739 mmHg 79%
    13:00 +17°C° 0,4 mm 3 m/s 739 mmHg 76%
    14:00 +18°C° 0,4 mm 3 m/s 739 mmHg 73%
    15:00 +18°C° 0,6 mm 3 m/s 739 mmHg 75%
    16:00 +18°C° 0,6 mm 3 m/s 739 mmHg 77%
    17:00 +17°C° 0,6 mm 3 m/s 739 mmHg 79%
    18:00 +17°C° 0,4 mm 3 m/s 739 mmHg 83%
    19:00 +16°C° 0,4 mm 2 m/s 740 mmHg 87%
    20:00 +15°C° 0,4 mm 2 m/s 740 mmHg 91%
    21:00 +14°C° 0,5 mm 2 m/s 740 mmHg 92%
    22:00 +13°C° 0,5 mm 2 m/s 740 mmHg 94%
    23:00 +12°C° 0,5 mm 2 m/s 740 mmHg 96%

    27 Junho, Quarta-feira

    Tempo Temperatura Precipitação Vento Pressão Humidade
    00:00 +10°C° 0 mm 2 m/s 740 mmHg 97%
    01:00 +10°C° 0 mm 2 m/s 740 mmHg 97%
    02:00 +10°C° 0 mm 2 m/s 740 mmHg 97%
    03:00 +9°C° 0 mm 2 m/s 740 mmHg 97%
    04:00 +9°C° 0 mm 2 m/s 740 mmHg 98%
    05:00 +9°C° 0 mm 2 m/s 741 mmHg 98%
    06:00 +12°C° 0 mm 2 m/s 741 mmHg 94%
    07:00 +12°C° 0 mm 3 m/s 741 mmHg 91%
    08:00 +14°C° 0 mm 3 m/s 741 mmHg 88%
    09:00 +16°C° 0,1 mm 3 m/s 742 mmHg 80%
    10:00 +18°C° 0,1 mm 3 m/s 742 mmHg 73%
    11:00 +20°C° 0,1 mm 4 m/s 742 mmHg 66%
    12:00 +20°C° 0,3 mm 4 m/s 742 mmHg 65%
    13:00 +21°C° 0,3 mm 4 m/s 742 mmHg 64%
    14:00 +22°C° 0,3 mm 4 m/s 742 mmHg 63%
    15:00 +21°C° 0,4 mm 4 m/s 742 mmHg 67%
    16:00 +21°C° 0,4 mm 4 m/s 742 mmHg 71%
    17:00 +20°C° 0,4 mm 4 m/s 742 mmHg 74%
    18:00 +20°C° 0,2 mm 4 m/s 742 mmHg 79%
    19:00 +19°C° 0,2 mm 3 m/s 742 mmHg 84%
    20:00 +18°C° 0,2 mm 3 m/s 742 mmHg 88%
    21:00 +17°C° 0,1 mm 3 m/s 743 mmHg 90%
    22:00 +16°C° 0,1 mm 3 m/s 743 mmHg 92%
    23:00 +14°C° 0,1 mm 3 m/s 743 mmHg 94%

    28 Junho, Quinta-feira

    Tempo Temperatura Precipitação Vento Pressão Humidade
    00:00 +14°C° 0,1 mm 3 m/s 742 mmHg 94%
    01:00 +14°C° 0,1 mm 3 m/s 742 mmHg 95%
    02:00 +14°C° 0,1 mm 3 m/s 742 mmHg 95%
    03:00 +14°C° 0 mm 4 m/s 742 mmHg 95%
    04:00 +14°C° 0 mm 4 m/s 741 mmHg 95%
    05:00 +14°C° 0 mm 4 m/s 741 mmHg 96%
    06:00 +15°C° 0,2 mm 5 m/s 741 mmHg 94%
    07:00 +16°C° 0,2 mm 5 m/s 741 mmHg 92%
    08:00 +17°C° 0,2 mm 6 m/s 740 mmHg 90%
    09:00 +19°C° 0,3 mm 6 m/s 740 mmHg 86%
    10:00 +20°C° 0,3 mm 6 m/s 740 mmHg 82%
    11:00 +21°C° 0,3 mm 7 m/s 739 mmHg 79%
    12:00 +22°C° 0,3 mm 7 m/s 739 mmHg 77%
    13:00 +23°C° 0,3 mm 7 m/s 738 mmHg 76%
    14:00 +24°C° 0,3 mm 7 m/s 738 mmHg 75%
    15:00 +23°C° 1,5 mm 7 m/s 738 mmHg 79%
    16:00 +22°C° 1,5 mm 6 m/s 737 mmHg 83%
    17:00 +21°C° 1,5 mm 6 m/s 737 mmHg 87%
    18:00 +21°C° 2,4 mm 6 m/s 736 mmHg 89%
    19:00 +20°C° 2,4 mm 6 m/s 736 mmHg 91%
    20:00 +20°C° 2,4 mm 5 m/s 736 mmHg 93%
    21:00 +20°C° 1,8 mm 5 m/s 736 mmHg 94%
    22:00 +20°C° 1,8 mm 5 m/s 735 mmHg 95%
    23:00 +19°C° 1,8 mm 5 m/s 735 mmHg 95%

    29 Junho, Sexta-feira

    Tempo Temperatura Precipitação Vento Pressão Humidade
    00:00 +19°C° 0,3 mm 5 m/s 735 mmHg 95%
    01:00 +19°C° 0,3 mm 5 m/s 734 mmHg 95%
    02:00 +19°C° 0,3 mm 4 m/s 734 mmHg 95%
    03:00 +19°C° 0,1 mm 4 m/s 734 mmHg 96%
    04:00 +19°C° 0,1 mm 4 m/s 733 mmHg 96%
    05:00 +19°C° 0,1 mm 4 m/s 733 mmHg 97%
    06:00 +19°C° 0 mm 4 m/s 733 mmHg 96%
    07:00 +20°C° 0 mm 4 m/s 733 mmHg 95%
    08:00 +20°C° 0 mm 4 m/s 733 mmHg 94%
    09:00 +21°C° 0,4 mm 4 m/s 733 mmHg 91%
    10:00 +22°C° 0,4 mm 3 m/s 733 mmHg 88%
    11:00 +24°C° 0,4 mm 3 m/s 733 mmHg 85%
    12:00 +24°C° 0,7 mm 3 m/s 733 mmHg 83%
    13:00 +24°C° 0,7 mm 3 m/s 733 mmHg 81%
    14:00 +25°C° 0,7 mm 3 m/s 733 mmHg 79%
    15:00 +25°C° 0,3 mm 3 m/s 733 mmHg 78%
    16:00 +25°C° 0,3 mm 3 m/s 732 mmHg 77%
    17:00 +25°C° 0,3 mm 3 m/s 732 mmHg 76%
    18:00 +24°C° 0,1 mm 2 m/s 732 mmHg 80%
    19:00 +23°C° 0,1 mm 2 m/s 732 mmHg 84%
    20:00 +21°C° 0,1 mm 2 m/s 732 mmHg 87%
    21:00 +20°C° 0 mm 2 m/s 732 mmHg 90%
    22:00 +19°C° 0 mm 2 m/s 732 mmHg 92%
    23:00 +18°C° 0 mm 2 m/s 732 mmHg 95%
    Mostrar mais